Weather History for Asheville, NC

Change the Weather History Date:

Saturday, February 2, 2013

  Actual Average Record
Temperature  
Mean Temperature 32 °F 38 °F  
Max Temperature 43 °F 49 °F 76 °F (1989)
Min Temperature 20 °F 28 °F -2 °F (1917)
Degree Days  
Heating Degree Days 33 27  
Month to date heating degree days 66 54  
Since 1 July heating degree days 2313 2581  
Cooling Degree Days 0 0  
Month to date cooling degree days 0 0  
Year to date cooling degree days 0 0  
Moisture  
Dew Point 19 °F    
Average Humidity 59    
Maximum Humidity 89    
Minimum Humidity 29    
Precipitation  
Precipitation T in 0.13 in 2.18 in (1983)
Month to date precipitation T 0.26  
Year to date precipitation 8.58 3.93  
Snow  
Snow T in 0.10 in 7.00 in (1895)
Month to date snowfall T 0.2  
Since 1 July snowfall T 5.3  
Snow Depth 0.00 in    
Sea Level Pressure  
Sea Level Pressure 30.19 in    
Wind  
Wind Speed 7 mph (South)    
Max Wind Speed 17 mph    
Max Gust Speed 23 mph    
Visibility 10 miles    
Events Snow    
T = Trace of Precipitation, MM = Missing Value Source: NWS Daily Summary

Daily Weather History Graph

Daily Weather History Graph

Search for Another Location

Airport:

Trip Planner

Search our weather history database for the weather conditions in past years. The results will help you decide how hot, cold, wet, or windy it might be!

Date:

Astronomy

Feb. 02, 2013 Rise Set
Actual Time 7:28 AM EST 5:59 PM EST
Civil Twilight 7:02 AM EST 6:26 PM EST
Nautical Twilight 6:31 AM EST 6:56 PM EST
Astronomical Twilight 6:01 AM EST 7:26 PM EST
Moon No Moon Rise 10:54 AM EST
Length of Visible Light 11h 24m
Length of Day
10h 30m
Waning Gibbous, 60% of the Moon is Illuminated
Feb 2
Waning Gibbous
Feb 3
Last Quarter
Feb 10
New
Feb 17
First Quarter
Feb 25
Full

Hourly Weather History & Observations

Time (EST) Temp. Windchill Dew Point Humidity Pressure Visibility Wind Dir Wind Speed Gust Speed Precip Events Conditions
12:54 AM 21.0 °F 16.2 °F 8.1 °F 57% 30.35 in 10.0 mi North 3.5 mph - N/A   Clear
1:54 AM 21.0 °F 13.4 °F 9.0 °F 60% 30.35 in 10.0 mi NNW 5.8 mph - N/A   Clear
2:54 AM 21.0 °F - 9.0 °F 60% 30.32 in 10.0 mi Calm Calm - N/A   Clear
3:54 AM 19.4 °F - 10.4 °F 68% 30.27 in 10.0 mi Calm Calm - N/A   Clear
4:54 AM 21.0 °F - 12.0 °F 68% 30.30 in 10.0 mi Calm Calm - N/A   Clear
5:54 AM 21.0 °F 16.2 °F 12.9 °F 71% 30.32 in 10.0 mi SE 3.5 mph - N/A   Clear
6:54 AM 21.2 °F 13.6 °F 12.2 °F 68% 30.26 in 10.0 mi SE 5.8 mph - N/A   Clear
7:54 AM 21.9 °F 14.5 °F 12.0 °F 66% 30.33 in 10.0 mi ESE 5.8 mph - N/A   Clear
8:54 AM 25.0 °F 18.1 °F 12.0 °F 58% 30.32 in 10.0 mi SE 5.8 mph - N/A   Partly Cloudy
9:54 AM 28.0 °F 19.3 °F 9.0 °F 45% 30.30 in 10.0 mi SE 9.2 mph - N/A   Overcast
10:54 AM 33.1 °F 26.1 °F 10.0 °F 38% 30.27 in 10.0 mi SSE 8.1 mph - N/A   Partly Cloudy
11:54 AM 37.9 °F 31.5 °F 9.0 °F 30% 30.23 in 10.0 mi South 9.2 mph - N/A   Mostly Cloudy
12:54 PM 39.9 °F 35.8 °F 10.0 °F 29% 30.18 in 10.0 mi SW 5.8 mph - N/A   Mostly Cloudy
1:54 PM 41.0 °F 33.5 °F 18.0 °F 40% 30.12 in 10.0 mi South 13.8 mph 19.6 mph N/A   Overcast
2:54 PM 39.9 °F 32.5 °F 25.0 °F 55% 30.10 in 10.0 mi South 12.7 mph - N/A   Overcast
3:54 PM 37.9 °F 30.0 °F 24.1 °F 57% 30.09 in 10.0 mi South 12.7 mph 19.6 mph N/A   Overcast
4:54 PM 36.0 °F 28.5 °F 30.0 °F 79% 30.09 in 10.0 mi SSW 10.4 mph - N/A   Overcast
5:54 PM 34.0 °F 26.6 °F 30.0 °F 85% 30.07 in 10.0 mi South 9.2 mph - N/A   Overcast
6:54 PM 34.0 °F 28.8 °F 30.0 °F 85% 30.07 in 10.0 mi SW 5.8 mph 16.1 mph N/A   Overcast
7:06 PM 33.8 °F 27.0 °F 30.2 °F 87% 30.02 in 10.0 mi SSW 8.1 mph - N/A   Overcast
7:28 PM 33.8 °F 24.8 °F 30.2 °F 87% 30.03 in 9.0 mi SSW 12.7 mph - 0.00 in   Overcast
7:54 PM 34.0 °F 25.5 °F 30.9 °F 89% 30.07 in 10.0 mi SSW 11.5 mph - 0.00 in Snow Light Snow
8:54 PM 34.0 °F 29.8 °F 30.9 °F 89% 30.08 in 10.0 mi SSW 4.6 mph - 0.00 in   Overcast
9:54 PM 34.0 °F 28.0 °F 30.9 °F 89% 30.06 in 10.0 mi SW 6.9 mph - N/A   Overcast
10:54 PM 33.1 °F 28.7 °F 30.9 °F 92% 30.04 in 10.0 mi NNW 4.6 mph - N/A   Overcast
11:54 PM 34.0 °F 28.8 °F 30.9 °F 89% 30.01 in 10.0 mi North 5.8 mph - N/A   Overcast